Orbital Elements at Epoch 2459200.5 (2020-Dec-17.0) TDB
Reference: JPL 16 (heliocentric ecliptic J2000)
Element | Value | Uncertainty (1-sigma) | Units |
e | .2368837511031663 | 7.2422e-08 | |
a | 2.362110891630441 | 1.3076e-08 | au |
q | 1.802565203099378 | 1.6675e-07 | au |
i | 5.847981644726407 | 6.4511e-06 | deg |
node | 39.39279871909 | 5.124e-05 | deg |
peri | 340.4348674391091 | 5.2865e-05 | deg |
M | 51.88031455461897 | 1.1087e-05 | deg |
tp | 2459009.405164562214 (2020-Jun-08.90516456) | 4.0396e-05 | TDB |
period | 1326.016261624193 3.63 | 1.1011e-05 3.015e-08 | d yr |
n | .2714898832078033 | 2.2543e-09 | deg/d |
Q | 2.921656580161505 | 1.6173e-08 | au |
|
| | Orbit Determination Parameters
Additional Information
|